Wind_Speed
16 16 16 17 18 19 19 19 19 21 23 23 22 22 22 20 20 19 18 17 17 18 18 18 18 16 15 14 14 15 15 15 15 15 16 19 21 20 20 21 20 20 20 21
15 15 16 17 18 19 18 18 18 19 21 21 21 21 21 19 18 17 17 17 18 18 19 19 17 17 16 15 15 15 14 15 16 16 16 17 17 17 19 20 20 21 21 22
15 15 17 17 18 18 17 17 18 19 20 21 20 19 19 17 16 15 15 16 16 18 19 18 18 17 17 15 16 17 16 16 17 17 17 18 19 19 20 21 22 23 23 24
15 16 17 17 18 17 17 16 18 20 20 20 20 19 17 16 15 15 16 16 16 17 18 19 18 17 18 18 17 17 17 17 18 18 18 20 20 21 22 23 24 24 25 25
15 16 17 17 17 18 16 17 17 18 19 19 19 19 16 15 14 15 15 16 17 18 18 18 18 18 19 18 17 17 18 19 19 19 20 21 21 22 23 24 24 25 25 25
15 16 17 16 17 17 17 17 17 18 18 19 19 19 17 15 15 16 16 17 18 18 18 19 19 19 19 19 18 18 18 19 19 20 21 21 22 23 24 25 25 25 26 26
14 15 15 16 16 17 17 18 18 17 17 17 18 18 16 15 16 17 19 19 19 20 20 19 20 20 20 19 19 18 19 19 20 21 22 23 24 25 26 26 26 27 27 27
12 14 15 15 16 16 16 17 18 18 18 17 17 18 16 16 16 17 17 18 19 20 20 20 20 19 19 19 19 19 20 21 22 23 23 24 24 26 27 27 28 28 28 28
12 13 14 14 15 15 16 17 18 19 18 18 18 18 18 17 17 18 18 18 19 19 18 18 18 18 18 19 20 21 21 22 23 24 24 25 26 26 27 27 28 28 27 27
12 13 14 15 16 16 16 16 17 18 18 18 17 17 17 18 18 20 19 19 18 18 19 18 18 18 19 20 20 21 22 23 24 25 26 27 27 27 27 27 27 26 27 27
13 14 14 16 16 16 16 17 17 17 18 18 18 16 16 17 18 18 18 18 18 19 18 19 20 19 20 21 22 21 22 23 24 25 26 26 27 27 27 27 27 27 26 26
13 14 14 15 15 15 16 17 17 17 17 17 17 16 16 17 17 18 18 18 18 19 19 19 20 21 21 22 22 21 22 23 24 24 25 25 25 25 26 26 25 25 24 24
13 13 14 15 16 16 16 16 16 16 16 16 16 15 15 16 17 18 18 19 19 19 19 20 20 21 22 22 22 22 22 23 24 24 25 25 25 25 25 24 24 23 23 22
12 13 13 14 14 15 15 15 15 15 15 15 15 15 15 15 16 17 18 19 19 19 20 21 21 21 22 22 22 22 23 23 24 24 24 24 24 24 24 23 23 22 22 22
10 11 11 12 13 13 14 14 14 15 15 15 15 15 15 16 16 17 17 17 18 19 20 21 21 21 21 21 21 22 23 24 23 23 23 22 22 22 22 22 21 21 20 19
9 10 10 11 11 13 13 13 13 14 15 14 14 14 15 16 17 18 18 17 18 18 18 19 20 20 20 20 21 22 22 22 22 22 21 21 20 20 20 20 19 18 17 17
7 9 9 10 11 11 12 11 12 12 12 12 13 14 15 16 16 17 17 16 16 16 16 16 17 18 18 19 20 20 21 21 21 20 20 19 19 18 17 17 16 16 16 15
6 7 7 8 9 10 10 10 10 11 12 12 13 14 15 16 16 16 15 15 15 16 16 16 17 18 18 18 18 19 19 18 18 18 18 17 16 15 15 15 15 15 14 14
5 6 6 7 8 8 8 9 10 10 11 12 13 14 15 15 16 15 14 14 14 15 15 16 17 17 17 18 17 17 16 16 15 15 14 14 14 14 13 13 12 12 12 11
4 4 5 5 5 5 6 7 8 9 10 11 12 12 13 13 13 13 13 14 14 15 15 15 15 15 15 15 14 14 14 13 13 13 12 12 11 11 10 9 8 8 8 8
3 4 3 3 3 3 4 5 7 8 9 10 11 11 12 12 12 13 13 13 13 13 12 12 12 12 13 13 12 12 11 11 11 10 9 9 8 7 6 6 5 5 5 5
2 2 2 2 2 3 4 6 6 7 8 9 9 10 11 11 12 12 12 12 13 12 11 11 10 10 10 10 10 9 9 8 8 7 6 6 5 5 4 4 4 3 3 3
2 2 2 3 3 3 5 6 6 6 7 8 8 9 10 10 10 11 11 11 10 9 9 9 9 9 8 8 7 7 6 5 5 5 4 4 3 3 3 2 2 2 1 1
3 2 2 3 3 4 6 7 6 6 6 7 7 8 8 9 9 10 10 10 9 8 8 8 8 8 7 6 5 5 4 4 3 3 3 3 3 3 3 2 2 1 1 2
3 2 2 3 4 5 6 5 5 5 5 6 7 8 9 9 9 9 9 9 8 8 8 7 7 6 6 5 4 4 4 4 4 3 3 3 4 4 4 3 3 3 3 4
2 3 3 4 4 4 5 5 5 5 6 6 7 8 8 8 9 9 8 7 7 7 6 6 6 6 5 5 5 5 5 5 4 3 4 5 5 5 5 6 6 6 7 7
Wind_Direction
233 232 231 228 224 224 226 226 229 230 235 240 244 244 245 247 251 255 262 272 279 281 285 288 289 285 286 288 282 278 270 266 260 258 257 252 255 254 259 262 264 267 270 270
229 227 227 227 223 223 225 226 227 230 236 239 242 244 245 246 250 257 264 271 277 280 285 286 285 285 284 283 283 281 277 271 267 263 264 265 265 264 265 269 271 273 273 275
227 225 225 224 223 223 225 225 228 232 236 240 244 246 245 246 250 257 267 273 276 277 281 284 284 284 284 283 281 276 274 269 266 266 265 268 270 271 272 272 272 273 274 275
225 224 224 224 224 225 225 225 229 232 235 239 243 246 249 249 253 258 266 272 277 277 280 284 283 284 284 281 278 274 271 267 265 266 267 268 269 270 272 274 277 277 276 276
226 225 225 224 224 226 223 225 228 230 237 242 245 250 250 252 257 260 267 273 280 282 282 283 282 284 283 280 278 274 268 268 268 269 271 272 272 273 275 276 277 277 277 276
226 226 224 223 224 227 227 229 229 234 242 246 248 256 259 260 264 266 272 277 282 285 283 279 282 285 281 277 275 274 270 270 271 272 274 276 276 277 278 278 277 277 276 275
221 223 224 225 226 229 231 232 234 239 244 249 255 262 267 269 271 274 276 279 280 285 284 281 283 282 277 274 273 274 273 273 274 276 278 278 279 279 279 279 278 277 276 274
218 220 224 226 229 232 233 236 241 244 248 251 256 264 270 273 278 279 279 280 280 285 282 281 282 277 274 272 272 274 275 276 278 280 281 281 281 281 280 279 279 277 276 275
216 219 221 224 228 233 235 238 242 247 251 254 259 265 270 271 277 281 283 284 283 285 282 280 279 277 274 272 273 276 278 279 281 281 281 281 281 282 282 280 279 277 276 275
224 225 226 229 234 236 238 242 246 249 254 257 262 265 271 275 279 282 283 283 282 281 282 279 277 276 272 273 275 277 279 280 281 281 281 281 281 281 281 280 279 277 276 275
233 233 230 232 237 243 243 246 249 253 256 262 266 268 273 277 280 281 281 282 282 280 278 275 274 275 277 278 278 279 280 281 282 283 282 281 280 280 279 278 278 278 278 277
237 236 234 234 240 245 247 249 252 258 262 264 269 274 277 281 283 284 283 282 282 280 277 276 275 277 279 280 281 281 281 282 284 284 283 282 280 279 279 279 279 279 278 277
240 239 240 240 242 245 250 253 257 260 263 268 273 279 281 285 287 287 288 286 283 278 277 278 279 280 281 280 279 280 282 283 284 284 284 282 280 279 279 279 279 279 278 277
243 243 243 245 246 247 250 253 258 260 263 268 274 280 285 289 290 292 291 290 288 285 281 281 280 281 280 279 280 282 285 288 287 285 285 283 282 281 280 280 280 279 278 276
250 248 247 248 247 247 253 258 260 262 265 270 276 281 285 290 292 294 294 293 289 289 288 284 287 284 280 280 282 284 287 288 288 287 287 286 285 283 282 281 281 280 279 277
257 256 255 252 250 250 254 259 261 263 267 271 277 283 287 290 292 295 294 293 291 292 293 291 291 288 284 284 285 286 286 288 288 288 288 288 286 284 284 283 281 281 281 278
254 257 258 255 253 254 254 257 260 262 269 274 281 288 290 294 297 296 296 294 295 297 298 295 294 293 289 289 290 289 289 289 289 289 288 287 286 284 284 283 281 280 280 278
256 259 263 262 258 256 261 260 263 269 275 281 284 287 292 295 299 300 299 298 301 300 295 293 296 296 294 293 292 292 292 292 292 291 290 290 288 286 283 280 279 279 279 278
273 270 275 272 261 261 267 267 270 275 279 283 286 290 295 297 298 301 301 302 305 303 298 295 297 298 299 298 296 294 293 291 293 293 291 291 290 287 284 280 278 279 278 278
288 290 290 284 270 265 272 279 279 280 283 288 294 298 300 302 303 302 303 305 306 302 301 302 303 304 304 302 299 296 297 294 294 293 292 293 293 291 288 285 285 285 281 274
291 292 294 296 294 285 288 290 289 286 291 297 301 304 305 306 309 308 308 311 314 311 310 310 309 308 310 308 305 300 300 300 300 300 298 299 300 298 296 293 291 289 282 273
312 308 312 309 303 296 302 301 298 298 300 302 304 307 310 311 310 312 314 315 316 315 317 317 316 315 315 316 316 311 308 308 309 310 310 312 313 308 304 301 299 299 294 279
336 330 324 329 318 310 315 317 311 308 310 313 311 313 316 318 320 322 321 321 322 323 326 329 327 323 324 326 327 323 322 326 330 331 328 329 332 333 332 331 333 335 331 293
5 357 340 330 316 310 313 314 313 314 319 323 326 330 328 329 328 330 334 335 335 334 335 337 337 335 335 334 337 346 348 350 353 358 359 4 2 3 3 8 18 55 67 85
22 18 350 333 326 321 321 319 317 321 325 328 334 337 336 334 337 339 340 340 340 339 339 344 352 356 357 2 6 14 15 15 19 22 25 30 38 46 47 56 70 80 87 104
10 9 3 357 350 345 341 339 333 332 332 332 335 338 340 342 345 347 347 347 350 354 359 5 12 17 23 33 42 41 39 44 49 51 53 56 62 64 70 74 82 88 94 99
Height
5814 5817 5818 5819 5821 5823 5825 5827 5829 5831 5832 5834 5835 5836 5838 5839 5840 5841 5842 5842 5842 5842 5842 5841 5840 5840 5840 5840 5839 5839 5838 5838 5838 5838 5839 5839 5840 5841 5841 5841 5841 5842 5841 5840
5811 5813 5815 5816 5818 5820 5823 5825 5827 5828 5829 5831 5832 5834 5835 5836 5837 5838 5838 5838 5838 5838 5838 5837 5836 5836 5836 5836 5836 5835 5835 5835 5835 5835 5835 5836 5836 5836 5837 5837 5837 5837 5837 5836
5808 5810 5811 5813 5816 5818 5820 5823 5824 5826 5827 5828 5830 5831 5833 5834 5834 5835 5835 5835 5835 5834 5834 5833 5833 5832 5832 5832 5832 5831 5831 5831 5831 5831 5831 5832 5832 5832 5832 5832 5832 5832 5831 5830
5805 5807 5809 5811 5814 5816 5818 5820 5822 5823 5824 5825 5827 5829 5830 5831 5832 5832 5832 5832 5831 5831 5830 5829 5828 5828 5828 5828 5827 5827 5826 5827 5827 5827 5827 5827 5827 5827 5827 5826 5826 5825 5825 5824
5802 5804 5806 5809 5811 5814 5816 5817 5819 5820 5821 5823 5824 5825 5828 5828 5828 5829 5829 5828 5827 5827 5826 5826 5825 5824 5824 5823 5823 5823 5823 5823 5822 5822 5822 5822 5822 5822 5821 5820 5820 5819 5818 5817
5800 5802 5804 5807 5809 5811 5813 5815 5816 5818 5819 5820 5821 5823 5824 5824 5825 5825 5825 5825 5824 5823 5822 5821 5821 5820 5819 5819 5818 5818 5818 5818 5818 5818 5818 5817 5817 5816 5815 5814 5813 5812 5812 5811
5798 5801 5802 5805 5807 5809 5811 5813 5815 5815 5816 5817 5818 5819 5821 5821 5821 5821 5821 5820 5819 5819 5818 5817 5816 5816 5816 5815 5815 5814 5814 5813 5813 5812 5812 5811 5810 5810 5809 5808 5807 5806 5805 5804
5797 5799 5801 5803 5805 5807 5808 5811 5813 5813 5814 5815 5815 5815 5817 5817 5816 5816 5816 5815 5814 5814 5813 5812 5811 5811 5811 5810 5810 5809 5809 5808 5807 5806 5805 5804 5804 5803 5802 5801 5799 5799 5798 5797
5795 5798 5799 5801 5803 5805 5806 5807 5809 5810 5811 5812 5812 5813 5813 5813 5813 5812 5811 5810 5809 5809 5808 5807 5806 5806 5806 5805 5805 5804 5803 5802 5801 5800 5799 5798 5797 5796 5794 5793 5792 5791 5790 5789
5793 5796 5797 5799 5801 5802 5804 5805 5806 5807 5808 5808 5809 5809 5810 5809 5809 5808 5807 5806 5805 5804 5803 5802 5801 5801 5800 5800 5799 5798 5797 5796 5795 5793 5792 5791 5789 5788 5787 5785 5784 5783 5782 5782
5791 5793 5795 5796 5797 5799 5800 5802 5803 5804 5804 5805 5805 5808 5806 5806 5804 5803 5802 5801 5800 5799 5798 5798 5797 5796 5795 5794 5793 5792 5791 5789 5788 5786 5785 5783 5782 5781 5779 5778 5777 5776 5775 5774
5788 5790 5791 5793 5794 5795 5797 5798 5799 5801 5801 5801 5802 5806 5802 5801 5800 5798 5797 5796 5794 5794 5793 5792 5791 5790 5789 5788 5787 5786 5784 5783 5781 5780 5778 5776 5775 5774 5772 5771 5770 5768 5767 5767
5785 5787 5788 5790 5793 5793 5793 5794 5796 5797 5798 5798 5798 5801 5798 5797 5795 5794 5792 5791 5789 5788 5787 5786 5785 5784 5783 5782 5781 5779 5778 5776 5775 5773 5771 5769 5768 5766 5765 5764 5763 5761 5760 5760
5782 5783 5786 5787 5788 5789 5790 5791 5792 5793 5794 5794 5795 5795 5794 5792 5791 5789 5788 5786 5785 5783 5782 5781 5779 5778 5777 5776 5774 5772 5771 5769 5768 5766 5764 5762 5761 5759 5758 5757 5756 5755 5754 5754
5780 5780 5781 5783 5784 5785 5787 5788 5789 5789 5790 5790 5791 5790 5790 5788 5787 5785 5783 5781 5780 5778 5776 5775 5773 5772 5770 5769 5767 5766 5764 5763 5761 5759 5757 5756 5754 5753 5752 5750 5750 5749 5748 5747
5777 5778 5779 5780 5781 5782 5783 5784 5785 5786 5786 5786 5786 5786 5785 5784 5782 5780 5778 5777 5775 5773 5771 5769 5767 5765 5764 5762 5761 5760 5758 5756 5754 5753 5751 5749 5748 5747 5745 5744 5744 5743 5742 5742
5776 5776 5777 5778 5778 5779 5780 5781 5782 5782 5782 5783 5783 5783 5781 5779 5777 5776 5774 5772 5770 5768 5766 5764 5762 5760 5758 5757 5755 5753 5752 5750 5748 5747 5745 5743 5742 5741 5740 5739 5738 5738 5738 5737
5775 5775 5775 5776 5777 5777 5780 5778 5779 5779 5779 5779 5779 5778 5777 5775 5774 5771 5770 5767 5766 5764 5761 5759 5757 5755 5753 5751 5749 5748 5746 5745 5743 5741 5740 5738 5737 5736 5735 5734 5734 5734 5733 5733
5774 5774 5774 5774 5774 5775 5776 5776 5776 5776 5776 5776 5775 5774 5773 5771 5770 5767 5765 5763 5761 5759 5757 5754 5752 5750 5748 5746 5745 5743 5741 5740 5738 5737 5735 5734 5733 5732 5731 5730 5730 5730 5729 5729
5773 5773 5773 5772 5772 5773 5775 5774 5773 5775 5774 5773 5772 5771 5769 5768 5766 5764 5762 5759 5757 5755 5753 5750 5748 5746 5744 5742 5740 5738 5737 5735 5734 5733 5732 5730 5729 5728 5728 5727 5727 5727 5726 5726
5772 5772 5772 5772 5771 5772 5772 5772 5772 5773 5773 5770 5769 5768 5766 5764 5763 5761 5758 5756 5754 5751 5749 5747 5744 5742 5740 5738 5737 5735 5734 5732 5731 5730 5729 5728 5727 5726 5726 5725 5725 5725 5724 5724
5772 5772 5771 5771 5771 5773 5771 5770 5770 5770 5768 5767 5766 5765 5763 5762 5759 5757 5755 5753 5751 5748 5746 5744 5742 5740 5738 5736 5734 5732 5731 5730 5729 5727 5726 5726 5725 5725 5724 5724 5723 5723 5723 5723
5771 5772 5771 5772 5773 5771 5769 5769 5768 5767 5766 5765 5764 5763 5761 5759 5757 5755 5753 5751 5748 5746 5744 5742 5740 5738 5736 5734 5732 5731 5730 5728 5727 5726 5726 5725 5724 5724 5724 5723 5723 5722 5722 5722
5771 5771 5771 5770 5770 5769 5769 5768 5767 5766 5765 5764 5763 5761 5760 5758 5756 5754 5751 5749 5747 5745 5743 5741 5739 5737 5735 5733 5731 5730 5729 5728 5727 5726 5726 5725 5724 5724 5723 5723 5722 5722 5722 5722
5772 5771 5770 5770 5769 5768 5767 5766 5766 5765 5764 5763 5762 5760 5758 5757 5755 5752 5750 5748 5746 5744 5742 5740 5738 5736 5734 5732 5731 5730 5729 5728 5727 5727 5726 5725 5725 5724 5724 5723 5723 5723 5722 5722
5772 5771 5771 5770 5769 5768 5767 5766 5765 5764 5763 5762 5761 5759 5757 5756 5754 5751 5749 5747 5745 5744 5742 5740 5738 5736 5735 5733 5732 5730 5729 5728 5728 5727 5727 5726 5726 5725 5725 5725 5725 5724 5724 5724